#timestamp,LO_Frequency,Hit,StdDev 
1588215615.6,286046998.9,P
1588215635.5,286046998.3,P
1588215655.3,286047000.4,N
1588215675.1,286047001.2,N
1588215695.9,286047001.2,N
1588215715.7,286047002.8,N
1588215735.5,286047000.2,N
1588215755.4,286047000.4,N
1588215775.2,286047000.6,N
1588215795.1,286047002.6,N
1588215796.0,286047002.6,N
1588215815.8,286047001.4,N
1588215835.6,286047003.8,N
1588215855.5,286047004.5,N
1588215875.3,286047002.9,N
1588215895.2,286047002.9,N
1588215915.9,286047003.8,N
1588215935.7,286047004.4,N
1588215955.6,286047004.3,N
1588215975.4,286047002.2,N
1588215995.2,286047001.7,N
1588216015.1,286046999.7,N
1588216016.0,286046999.7,N
1588216035.8,286047000.8,N
1588216055.7,286046998.3,N
1588216075.5,286047001.2,N
1588216095.3,286046999.0,N
1588216115.2,286046997.2,N
1588216135.0,286046996.1,N
1588216135.9,286046996.1,N
1588216155.8,286046996.2,N
1588216175.6,286046994.9,N
1588216195.4,286046995.9,N
1588216215.3,286046996.4,N
1588216235.1,286046993.6,N
1588216255.8,286046994.7,N
1588216275.7,286046993.9,N
1588216295.5,286046993.7,N
1588216315.4,286046993.5,N
1588216335.2,286046995.7,N
1588216355.0,286046996.0,N
1588216355.9,286046996.0,N
1588216375.8,286046996.1,N
1588216395.6,286046993.5,N
1588216415.5,286046993.7,N
1588216435.3,286046993.3,N
1588216455.1,286046994.3,N
1588216475.9,286046994.3,N
1588216495.7,286046994.7,N
1588216515.6,286046992.0,Y
1588216535.4,286046995.3,P
1588216555.2,286046995.0,P
1588216575.1,286046995.2,P
1588216576.0,286046995.2,Y
1588216595.8,286046999.9,P
1588216615.6,286047000.0,N
1588216635.5,286046998.1,N
1588216655.3,286047001.2,N
1588216675.2,286046998.5,N
1588216695.9,286047000.5,N
1588216715.7,286047001.0,N
1588216735.6,286046999.7,N
1588216755.4,286047002.3,N
1588216775.3,286047002.0,N
1588216795.1,286046999.7,N
1588216796.0,286046999.7,N
1588216815.8,286047001.0,N
1588216835.7,286047000.1,N
1588216855.5,286046999.7,N
1588216875.3,286047002.5,N
1588216895.2,286047000.3,N
1588216915.0,286047000.2,N
1588216915.9,286047000.2,N
1588216935.8,286047000.0,N
1588216955.6,286047000.5,N
1588216975.5,286046999.9,N
1588216995.3,286047000.1,N
1588217015.1,286046998.9,N
1588217035.9,286046998.7,N
1588217055.7,286047000.7,N
1588217075.6,286046998.1,N
1588217095.4,286046998.3,N
1588217115.2,286046998.9,N
1588217135.1,286046996.9,N
1588217136.0,286046996.9,N
1588217155.8,286046997.2,N
1588217175.6,286046998.3,N
1588217195.5,286046998.1,N
1588217215.3,286046999.3,N
1588217235.2,286046996.8,N
1588217255.0,286046999.0,N
1588217255.9,286046999.0,N
1588217275.7,286046996.6,N
1588217295.6,286046997.5,N
1588217315.4,286046996.7,N
1588217335.3,286046999.6,N
1588217355.1,286046997.0,N
1588217375.8,286046996.7,N
1588217395.7,286046998.6,N
1588217415.5,286046998.4,N
1588217435.4,286047001.2,N
1588217455.2,286047000.5,N
1588217475.0,286046998.7,N
1588217475.9,286046998.7,N
1588217495.8,286047002.6,N
1588217515.6,286047001.0,N
1588217535.5,286046997.0,N
1588217555.3,286047000.4,N
1588217575.1,286047000.0,N
1588217595.9,286046999.8,N
1588217615.7,286047000.4,N
1588217635.6,286047000.2,N
1588217655.4,286047001.0,N
1588217675.2,286047002.8,N
1588217695.1,286046999.7,N
1588217696.0,286046999.7,N
1588217715.8,286046999.9,N
1588217735.7,286046998.6,N
1588217755.5,286047000.8,N
1588217775.3,286047000.0,N
1588217795.2,286046999.9,N
1588217815.0,286047000.2,N
1588217815.9,286047000.2,N
1588217835.7,286046999.3,N
1588217855.6,286046998.8,N
1588217875.4,286046999.4,N
1588217895.3,286046998.6,N
1588217915.1,286047000.8,N
1588217935.8,286047002.6,N
1588217955.7,286046999.7,N
1588217975.5,286047004.4,Y
1588217995.4,286047001.9,P
1588218015.2,286047004.1,P
1588218035.0,286047002.4,N
1588218035.9,286047002.4,N
1588218055.8,286046999.9,N
1588218075.6,286047000.4,N
1588218095.4,286047002.4,N
1588218115.3,286047004.4,Y
1588218135.1,286047000.0,P
1588218155.9,286047004.2,P
1588218175.7,286047003.9,N
1588218195.6,286047002.2,N
1588218215.4,286047000.6,N
1588218235.2,286047000.3,N
1588218255.1,286047000.7,N
1588218256.0,286047000.7,N
1588218275.8,286047000.6,N
1588218295.6,286047002.0,N
1588218315.5,286047001.8,N
1588218335.3,286047005.7,Y
1588218355.2,286047001.6,P
1588218375.9,286047001.9,P
1588218395.7,286047004.1,P
1588218415.6,286047003.1,N
1588218435.4,286047003.5,Y
1588218455.3,286047002.2,P
1588218475.1,286047002.4,P
1588218476.0,286047002.4,P
1588218495.8,286047002.7,Y
1588218515.7,286046996.5,P
1588218535.5,286046997.6,N
1588218555.4,286046995.8,N
1588218575.2,286046995.5,N
1588218595.0,286046996.8,N
1588218595.9,286046996.8,N
1588218615.8,286046998.4,N
1588218635.6,286047000.3,N
1588218655.5,286046999.3,N
1588218675.3,286046998.4,N
1588218695.1,286046999.1,N
1588218715.9,286046999.3,N
1588218735.7,286047000.4,N
1588218755.5,286046998.2,N
1588218775.4,286046999.2,N
1588218795.2,286046997.4,N
1588218815.1,286046999.3,N
1588218816.0,286046999.3,N
1588218835.8,286046998.8,N
1588218855.6,286046999.1,N
1588218875.5,286046997.1,N
1588218895.3,286046996.6,N
1588218915.2,286046998.4,N
1588218935.9,286046998.5,N
1588218955.7,286046999.0,N
1588218975.6,286046997.2,N
1588218995.4,286046998.3,N
1588219015.3,286047001.1,N
1588219035.1,286046998.9,N
1588219036.0,286046998.9,N
1588219055.8,286047001.0,N
1588219075.7,286046997.6,N
1588219095.5,286046997.2,N
1588219115.4,286046997.8,N
1588219135.2,286046999.3,N
1588219155.0,286046998.1,N
1588219155.9,286046998.1,N
1588219175.8,286046998.9,N
1588219195.6,286046998.6,N
